Theta_e
322 319 319 318 318 317 316 318 319 320 321 321 320 321 321 322 323 323 324 325 325 325 324 322 321 320 324 329 349 358 347 354 349 354 353 350 349 348 346 345 341 335 334 335
322 320 319 318 318 317 316 316 318 320 321 322 321 322 322 322 323 324 324 325 326 326 326 326 324 325 334 360 357 358 356 353 351 348 345 341 336 335 333 338 337 334 334 330
321 320 319 318 318 317 317 316 317 321 321 321 321 321 323 323 323 323 323 323 325 324 326 327 330 349 354 360 358 355 354 350 345 341 339 336 333 334 334 334 333 331 332 329
319 320 319 318 317 317 317 316 317 320 321 322 322 322 325 324 324 323 323 323 324 327 326 331 338 349 352 359 355 353 352 349 342 338 334 333 344 341 335 332 332 328 326 327
321 320 320 319 318 317 316 317 317 319 320 322 322 322 324 326 324 323 324 324 326 325 327 329 335 339 345 349 351 355 356 352 342 337 332 332 331 334 341 333 333 334 331 331
321 321 320 320 318 316 317 318 320 320 320 323 321 321 322 323 325 324 324 324 327 326 326 329 331 329 333 342 348 354 356 351 344 333 335 329 329 331 337 338 340 346 340 333
322 321 321 319 319 318 318 320 322 323 323 324 322 322 324 325 324 324 326 327 327 326 329 330 333 332 332 331 330 346 357 353 348 341 339 336 335 339 344 340 345 349 348 346
326 325 323 320 320 320 319 321 322 326 324 322 321 323 323 325 324 326 325 325 325 326 329 329 332 333 330 332 331 330 337 342 349 352 348 346 340 342 351 346 345 346 346 347
322 326 320 319 319 320 320 321 322 324 324 326 324 323 326 326 325 325 324 325 328 329 330 330 333 334 337 339 341 340 337 337 339 342 348 352 353 354 352 349 348 347 347 344
323 328 321 321 320 320 321 320 322 323 326 329 326 325 326 327 326 324 324 327 328 327 328 329 332 336 337 338 339 340 342 343 345 346 346 346 348 347 348 345 345 345 343 341
321 329 330 323 323 321 320 322 323 324 326 330 330 332 329 327 331 331 328 328 328 326 326 327 329 330 331 333 333 333 335 336 337 340 341 342 341 341 334 330 337 335 336 338
324 329 331 329 323 324 325 321 322 330 330 326 334 335 331 331 330 331 328 328 326 326 326 326 326 327 327 328 328 329 328 328 329 332 332 331 335 337 336 335 334 335 335 333
327 331 335 332 329 326 329 323 324 327 332 333 335 337 330 330 331 329 328 329 326 325 326 327 327 326 326 326 325 324 323 324 325 328 329 328 328 329 329 329 329 330 330 330
328 331 332 335 332 330 331 330 326 328 335 332 331 333 331 329 328 328 329 327 326 327 326 326 325 326 325 324 324 322 322 322 321 323 324 323 322 323 323 323 323 324 323 323
328 330 329 329 326 326 326 326 329 330 326 332 330 329 332 325 325 325 323 320 320 319 320 321 325 327 326 326 322 321 319 318 318 318 320 319 318 317 318 318 318 319 319 319
329 327 323 329 329 324 323 321 327 328 329 326 327 328 326 323 323 322 321 321 321 321 320 321 324 323 322 320 319 318 317 316 316 316 315 315 314 314 313 314 314 315 315 316
323 321 321 321 323 323 321 319 320 327 326 325 326 324 324 322 321 320 320 320 320 321 321 321 321 320 319 317 316 315 315 314 314 314 314 314 314 313 313 312 311 311 311 312
321 319 320 321 318 319 321 320 318 318 316 316 317 322 322 321 320 319 319 319 319 318 318 318 317 316 316 315 315 314 314 314 314 313 313 313 312 312 311 311 311 310 311 311
318 321 323 321 320 319 319 320 321 320 319 321 323 323 321 321 320 320 318 317 318 317 317 316 315 315 314 314 314 314 313 313 313 312 312 311 310 310 309 309 309 310 310 311
316 319 324 320 323 320 326 321 319 319 328 322 323 322 321 320 320 321 318 316 315 315 314 315 314 314 314 314 313 313 312 312 311 310 310 309 308 308 308 308 308 308 309 310
319 321 322 321 322 319 322 319 318 322 326 322 320 320 319 319 320 318 317 316 315 315 314 313 312 313 313 312 311 311 310 309 308 308 307 307 307 307 307 308 308 307 306 306
320 322 322 323 322 320 319 318 321 325 322 319 318 318 318 316 316 315 315 314 314 313 312 312 311 311 309 308 307 307 307 307 307 306 306 306 306 306 305 304 304 303 303 302
321 318 322 321 321 322 322 322 321 321 318 317 316 314 314 314 314 314 313 312 312 310 309 308 308 307 307 306 306 307 306 306 305 305 304 303 301 301 301 299 299 298 298 298
317 319 320 320 320 320 320 319 318 316 316 314 314 313 312 312 312 311 310 309 308 307 307 306 306 306 305 304 304 304 304 302 300 300 299 298 297 297 296 295 295 295 296 297
318 317 316 316 319 318 316 315 314 313 312 312 312 311 310 309 308 307 306 306 306 304 304 303 303 303 302 302 301 300 299 297 296 295 295 294 294 293 292 293 293 294 294 295
315 316 317 319 318 319 317 313 311 311 310 309 308 308 307 306 305 305 306 305 303 301 301 300 299 299 298 298 297 296 294 293 292 291 291 291 290 292 292 293 293 294 295 296
Wind_Speed
21 16 22 25 24 19 21 22 20 15 19 16 15 17 17 15 15 13 12 10 10 11 11 24 30 30 30 25 25 21 23 25 36 24 19 7 3 6 10 7 6 6 5 3
19 25 24 23 24 24 22 23 19 15 17 15 12 15 15 16 13 12 11 6 8 10 10 8 19 30 20 19 17 16 21 23 19 19 18 13 9 3 3 9 2 5 11 1
25 18 25 25 23 24 24 22 19 16 8 10 13 13 16 15 13 16 5 6 8 4 7 9 11 18 17 20 16 16 16 20 26 25 23 15 4 3 11 10 15 13 7 2
23 27 25 24 26 23 21 20 20 15 14 14 16 14 17 19 19 11 9 6 4 7 6 8 12 12 21 27 26 29 30 29 31 28 26 31 27 30 26 29 28 27 21 25
24 22 21 22 26 23 19 17 18 17 14 13 17 11 13 11 15 9 12 6 8 3 7 11 6 6 11 18 24 26 30 32 35 38 32 35 32 34 33 35 29 35 35 44
23 20 19 19 21 17 18 18 18 18 15 15 20 16 12 9 13 14 14 13 10 5 5 7 10 6 7 21 28 28 27 28 31 37 34 32 35 31 17 28 28 33 31 45
19 21 18 19 15 20 19 15 10 11 12 14 19 17 13 12 8 13 15 15 10 3 10 9 11 10 10 11 5 24 30 28 29 34 34 35 33 19 20 26 29 27 30 34
17 19 28 21 22 18 18 16 10 15 13 14 19 18 16 18 10 13 13 12 8 5 11 9 10 8 11 12 14 9 16 22 23 27 31 32 34 28 23 22 22 25 30 30
10 17 21 21 17 22 19 19 20 17 12 7 8 13 13 14 12 14 13 10 10 8 8 8 10 8 12 13 12 10 10 9 16 19 18 21 23 24 23 19 22 25 24 28
3 7 13 14 14 17 15 15 14 9 13 15 12 6 4 8 10 12 11 11 10 6 9 9 8 10 12 12 12 10 11 19 13 1 10 15 17 17 15 11 15 18 16 26
17 4 10 16 17 20 14 15 13 10 10 10 9 1 8 4 10 8 9 10 10 5 10 10 10 9 13 16 19 20 17 17 16 12 6 5 3 5 4 10 9 2 9 21
16 4 6 10 11 4 12 19 18 8 14 6 3 2 10 11 7 13 13 17 8 9 11 11 8 11 13 16 18 17 20 20 26 23 26 30 22 11 8 6 4 4 7 5
5 9 4 8 7 6 13 15 11 4 4 7 4 4 2 11 11 10 16 11 9 7 7 12 12 9 11 11 15 14 13 15 15 19 18 20 21 19 19 17 17 16 16 14
2 5 5 4 2 3 8 4 10 9 4 3 8 4 0 10 15 17 18 6 5 7 5 6 3 10 10 13 12 11 13 13 10 10 12 12 13 12 12 11 10 9 9 9
0 3 13 5 8 3 6 7 9 11 10 5 9 10 15 8 2 11 16 8 6 7 7 4 3 12 15 11 13 14 13 12 13 13 8 7 6 6 6 6 7 9 8 9
13 6 11 3 9 7 4 6 6 9 14 8 9 6 13 20 21 9 7 8 9 10 9 9 15 15 14 16 14 11 11 10 11 8 6 7 8 8 9 9 10 10 12 13
1 2 1 2 11 11 10 14 12 13 18 12 8 10 10 11 8 7 6 7 7 8 13 13 12 11 11 11 8 8 9 10 11 11 11 10 10 10 9 11 14 15 16 17
5 2 4 2 6 3 8 7 8 5 7 8 6 10 10 11 10 10 11 10 9 8 9 9 8 8 8 7 7 7 10 12 13 14 14 13 14 14 16 17 17 18 19 19
5 4 1 1 5 1 7 5 5 5 6 8 12 12 10 10 7 11 11 8 7 7 7 8 6 5 6 8 7 7 11 13 14 16 16 16 16 17 17 17 19 19 20 20
4 5 3 3 2 2 8 9 6 3 5 10 12 7 6 3 3 4 3 4 5 3 3 4 7 10 9 12 9 10 12 15 17 18 17 18 18 18 18 19 21 22 21 21
3 3 3 5 2 2 6 6 3 4 4 8 8 7 7 5 5 6 2 1 1 3 5 6 7 11 12 10 11 12 14 16 17 19 19 19 19 20 21 20 17 19 21 21
4 5 4 3 4 5 1 4 3 4 6 10 7 7 5 3 3 3 3 3 5 6 8 10 10 11 12 13 15 16 16 16 18 19 19 20 20 19 20 22 21 20 20 21
5 1 3 5 1 7 10 12 10 11 9 7 8 2 4 5 6 7 6 8 9 12 14 15 16 15 13 13 13 15 18 18 19 18 16 18 20 20 20 19 20 20 18 16
6 8 2 3 7 7 12 10 11 9 7 3 3 4 4 6 8 9 8 9 9 12 13 15 16 16 16 17 18 21 18 17 16 16 17 19 20 20 19 19 17 18 18 16
3 3 1 2 8 10 8 10 8 6 6 3 6 7 8 9 9 8 9 10 8 13 17 19 20 20 21 21 19 20 16 16 16 17 19 19 17 18 21 18 19 20 22 19
2 5 3 2 7 8 7 5 5 6 7 8 9 10 11 10 11 13 7 11 13 15 18 19 18 18 18 18 16 16 17 16 17 17 15 16 19 17 18 18 20 19 19 20
Wind_Direction
206 219 215 216 224 226 245 241 226 242 235 178 222 245 231 242 254 258 242 239 219 242 236 209 210 226 238 239 198 133 155 144 189 177 162 159 22 293 289 282 334 62 47 20
203 223 223 219 221 230 237 252 251 246 236 187 203 240 244 246 249 245 254 303 226 219 214 217 192 207 214 126 142 135 130 144 141 117 102 99 94 52 278 270 319 206 67 103
213 215 223 227 222 226 225 235 244 252 237 267 262 255 253 260 246 252 204 242 277 305 188 196 190 135 137 130 151 166 157 156 157 158 146 141 176 217 212 165 149 172 250 22
217 236 202 221 232 221 228 223 244 234 239 241 201 249 248 226 227 202 212 201 40 14 155 145 151 162 169 163 172 177 183 183 177 165 175 173 177 184 205 186 212 229 209 205
226 221 233 221 226 227 231 218 221 242 242 248 253 255 263 224 181 202 188 147 102 9 35 38 97 109 167 185 187 183 182 177 177 177 168 187 197 210 187 196 215 217 209 206
225 250 226 219 236 221 219 232 221 216 224 229 233 242 245 232 207 190 181 139 106 71 74 49 48 54 175 192 193 191 179 179 183 186 201 198 207 218 200 202 213 197 208 210
228 228 244 246 233 209 227 217 217 222 226 238 225 224 235 240 240 193 149 119 121 120 90 45 41 11 1 352 90 157 178 189 197 207 215 219 226 242 243 219 208 194 200 207
210 224 216 207 210 209 214 216 219 215 217 236 222 223 216 228 156 110 98 91 113 98 68 45 62 3 352 12 7 349 189 186 199 210 216 222 237 234 244 229 234 218 213 204
238 264 201 217 210 217 200 212 232 250 275 257 255 248 81 101 121 135 143 149 106 96 94 59 74 29 46 30 22 359 315 226 203 213 229 235 232 226 233 244 239 227 220 217
289 239 222 221 238 245 246 216 228 250 242 245 249 211 107 183 154 162 158 134 118 128 106 99 67 83 79 79 55 28 27 39 22 29 229 238 244 248 236 248 253 248 218 204
220 91 278 228 221 216 202 218 242 245 271 253 218 65 352 17 49 47 15 138 135 130 120 113 105 86 70 62 65 41 52 51 53 61 42 24 27 201 236 65 275 118 106 152
180 173 244 233 224 305 288 218 213 220 248 250 43 232 326 347 80 70 48 320 132 97 99 86 82 90 90 88 70 54 43 46 52 62 53 47 52 85 85 134 89 67 96 98
229 169 198 220 291 241 250 231 248 318 45 245 235 149 331 343 348 131 141 218 229 156 83 94 80 56 50 71 89 75 56 44 50 56 46 45 44 38 33 32 20 20 15 15
68 240 235 169 87 152 264 340 229 201 191 183 216 187 22 9 353 350 281 181 102 133 82 5 63 132 106 72 33 78 68 41 40 73 76 55 44 38 28 19 12 4 353 338
315 41 302 121 148 226 260 299 307 269 224 156 254 235 140 105 11 221 276 357 338 333 335 310 301 96 86 73 67 47 38 28 10 9 54 67 31 26 18 3 338 324 312 301
197 196 241 139 219 169 215 268 266 289 293 230 191 235 161 177 188 221 27 4 20 359 335 5 67 66 62 58 50 42 27 11 4 348 342 358 2 348 335 322 308 313 311 304
240 307 282 273 193 157 232 211 219 200 224 222 205 98 139 127 106 68 49 54 44 28 34 52 65 67 58 56 54 24 356 353 342 329 327 328 324 314 313 312 312 315 313 308
337 325 281 269 67 214 79 30 10 349 223 226 212 98 86 76 91 85 74 61 53 42 37 37 47 59 43 24 14 1 341 332 324 319 319 321 322 326 327 325 319 315 312 304
332 290 87 194 195 245 152 79 48 28 107 47 72 67 85 70 73 73 77 48 41 32 8 1 15 6 353 332 327 330 320 313 313 314 321 325 328 323 318 313 310 308 309 308
147 313 118 203 240 264 79 60 34 19 108 27 89 108 108 127 246 109 114 93 71 50 358 329 311 314 333 317 330 319 309 313 313 314 320 322 318 313 313 312 309 303 299 299
139 120 173 224 176 281 116 97 334 216 101 66 87 69 68 42 65 113 128 275 232 283 296 313 306 299 299 318 332 324 315 308 314 318 315 314 315 313 306 305 321 325 319 311
139 164 198 229 193 237 148 116 350 94 70 81 81 59 75 50 344 274 311 296 275 257 259 273 276 301 325 331 331 317 305 312 312 310 310 312 314 319 324 327 321 315 310 305
170 203 188 181 210 127 84 86 69 80 100 94 112 98 22 338 323 322 318 331 334 329 322 319 312 314 324 319 314 320 316 310 302 305 321 334 333 325 322 325 319 310 306 305
186 128 156 217 48 82 88 94 91 96 98 65 24 12 329 318 313 318 324 331 325 315 329 334 335 328 332 332 321 310 332 348 343 332 327 324 319 316 314 311 300 296 292 299
152 237 171 176 165 157 96 96 112 104 63 13 360 353 338 325 317 328 312 301 331 340 333 336 329 319 315 317 325 334 341 343 333 323 316 308 307 307 303 297 296 293 292 287
5 30 209 59 58 88 103 93 61 45 31 15 8 354 338 329 317 319 327 345 340 334 327 314 312 312 313 314 323 332 331 334 324 313 307 304 300 298 297 298 301 302 296 300